Rockford, IL

9:05 PM CDT on September 29, 2016 (GMT -0500)
Greater Rockford

Weather History for KRFD - April, 2012

Change the Weather History Date:

Sunday, April 15, 2012

  Actual Average Record
Temperature  
Mean Temperature 67 °F 49 °F  
Max Temperature 73 °F 61 °F 87 °F (2002)
Min Temperature 60 °F 38 °F 16 °F (1928)
Degree Days  
Heating Degree Days 0 16  
Month to date heating degree days 206 279  
Since 1 July heating degree days 5000 6143  
Cooling Degree Days 2 0  
Month to date cooling degree days 2 0  
Year to date cooling degree days 38 0  
Growing Degree Days 16 (Base 50)    
Moisture  
Dew Point 60 °F    
Average Humidity 77    
Maximum Humidity 90    
Minimum Humidity 64    
Precipitation  
Precipitation 2.26 in 0.12 in 2.26 in (2012)
Month to date precipitation 3.01 1.66  
Year to date precipitation 7.64 6.76  
Snow  
Snow 0.00 in 0.00 in 2.50 in (1949)
Month to date snowfall 0.0 0.7  
Since 1 July snowfall 24.3 36.5  
Snow Depth 0.00 in    
Sea Level Pressure  
Sea Level Pressure 29.64 in    
Wind  
Wind Speed 18 mph (South)    
Max Wind Speed 38 mph    
Max Gust Speed 53 mph    
Visibility 8 miles    
Events Rain , Thunderstorm    
T = Trace of Precipitation, MM = Missing Value Source: NWS Daily Summary

Daily Weather History Graph

Daily Weather History Graph

Search for Another Location

Airport or City:

Trip Planner

Search our weather history database for the weather conditions in past years. The results will help you decide how hot, cold, wet, or windy it might be!

Date:

Astronomy

Apr. 15, 2012 Rise Set
Actual Time 6:14 AM CDT 7:38 PM CDT
Civil Twilight 5:45 AM CDT 8:07 PM CDT
Nautical Twilight 5:10 AM CDT 8:42 PM CDT
Astronomical Twilight 4:33 AM CDT 9:20 PM CDT
Moon 3:18 AM CDT (4/15) 2:27 PM CDT (4/15)
Length of Visible Light 14h 21m
Length of Day
13h 23m
Waning Crescent, 27% of the Moon is Illuminated
Apr 15
Waning Crescent
Apr 21
New
Apr 29
First Quarter
May 5
Full
May 12
Last Quarter

Hourly Weather History & Observations

Time (CDT) Temp. Dew Point Humidity Pressure Visibility Wind Dir Wind Speed Gust Speed Precip Events Conditions
12:13 AM 60.8 °F 57.2 °F 88% 29.73 in 3.0 mi Variable 6.9 mph - 0.08 in Rain , Thunderstorm Thunderstorms and Rain
12:20 AM 60.8 °F 57.2 °F 88% 29.73 in 2.0 mi East 17.3 mph 23.0 mph 0.13 in Rain , Thunderstorm Heavy Thunderstorms and Rain
12:54 AM 60.1 °F 57.9 °F 93% 29.72 in 2.5 mi ENE 11.5 mph 19.6 mph 0.44 in Rain , Thunderstorm Heavy Thunderstorms and Rain
1:27 AM 60.8 °F 57.2 °F 88% 29.74 in 0.8 mi NNE 17.3 mph 39.1 mph 0.59 in Rain , Thunderstorm Heavy Thunderstorms and Rain
1:34 AM 60.8 °F 57.2 °F 88% 29.73 in 3.0 mi East 16.1 mph 19.6 mph 0.95 in Rain , Thunderstorm Light Thunderstorms and Rain
1:54 AM 60.1 °F 57.9 °F 93% 29.70 in 4.0 mi ESE 12.7 mph - 1.05 in Rain , Thunderstorm Light Thunderstorms and Rain
2:47 AM 60.8 °F 57.2 °F 88% 29.67 in 10.0 mi SE 12.7 mph - 0.07 in Rain Light Rain
2:54 AM 61.0 °F 57.9 °F 90% 29.68 in 10.0 mi SE 9.2 mph - 0.07 in Rain Light Rain
3:04 AM 60.8 °F 59.0 °F 94% 29.68 in 2.0 mi Calm Calm - 0.03 in Rain , Thunderstorm Heavy Thunderstorms and Rain
3:20 AM 60.8 °F 59.0 °F 94% 29.70 in 2.0 mi Calm Calm - 0.51 in Rain , Thunderstorm Heavy Thunderstorms and Rain
3:45 AM 60.8 °F 59.0 °F 94% 29.68 in 3.0 mi SSE 8.1 mph - 1.00 in Rain , Thunderstorm Light Thunderstorms and Rain
3:54 AM 60.8 °F 59.0 °F 94% 29.67 in 7.0 mi ESE 8.1 mph - N/A Rain , Thunderstorm Light Thunderstorms and Rain
4:20 AM 62.6 °F 60.8 °F 94% 29.68 in 10.0 mi South 6.9 mph - N/A   Overcast
4:54 AM 63.0 °F 60.1 °F 90% 29.66 in 8.0 mi SSE 8.1 mph - 0.00 in   Overcast
5:54 AM 63.0 °F 59.0 °F 87% 29.66 in 8.0 mi South 10.4 mph - 0.00 in   Overcast
6:54 AM 63.0 °F 57.9 °F 84% 29.65 in 10.0 mi South 11.5 mph - N/A   Overcast
7:54 AM 66.0 °F 57.9 °F 75% 29.68 in 10.0 mi SSW 16.1 mph 26.5 mph N/A   Overcast
8:54 AM 66.9 °F 57.9 °F 73% 29.67 in 10.0 mi SSW 19.6 mph 27.6 mph N/A   Overcast
9:54 AM 68.0 °F 59.0 °F 73% 29.69 in 10.0 mi SSW 16.1 mph - N/A   Overcast
10:54 AM 70.0 °F 59.0 °F 68% 29.69 in 10.0 mi SSW 17.3 mph 24.2 mph N/A   Overcast
11:54 AM 71.1 °F 60.1 °F 68% 29.68 in 10.0 mi SSW 19.6 mph 26.5 mph N/A   Overcast
12:54 PM 73.0 °F 60.1 °F 64% 29.66 in 10.0 mi SSW 23.0 mph 32.2 mph N/A   Overcast
1:54 PM 72.0 °F 61.0 °F 68% 29.69 in 10.0 mi SSW 19.6 mph 26.5 mph N/A   Overcast
2:54 PM 72.0 °F 61.0 °F 68% 29.68 in 10.0 mi SSW 18.4 mph 25.3 mph 0.00 in   Overcast
3:54 PM 70.0 °F 62.1 °F 76% 29.64 in 10.0 mi South 17.3 mph - 0.00 in   Overcast
4:54 PM 72.0 °F 62.1 °F 71% 29.63 in 10.0 mi South 18.4 mph - 0.00 in   Overcast
5:54 PM 71.1 °F 62.1 °F 73% 29.63 in 10.0 mi South 12.7 mph 21.9 mph 0.00 in   Overcast
6:54 PM 70.0 °F 62.1 °F 76% 29.61 in 8.0 mi South 17.3 mph - 0.00 in Rain Light Rain
7:52 PM 69.8 °F 62.6 °F 78% 29.58 in 10.0 mi South 23.0 mph 28.8 mph 0.00 in Rain , Thunderstorm Light Thunderstorms and Rain
7:54 PM 69.1 °F 62.1 °F 78% 29.56 in 10.0 mi South 23.0 mph 31.1 mph 0.00 in Rain , Thunderstorm Light Thunderstorms and Rain
8:15 PM 68.0 °F 62.6 °F 83% 29.61 in 1.5 mi South 31.1 mph 40.3 mph 0.03 in Rain , Thunderstorm Heavy Thunderstorms and Rain
8:25 PM 66.2 °F 62.6 °F 88% 29.61 in 7.0 mi South 20.7 mph 33.4 mph 0.11 in Rain , Thunderstorm Light Thunderstorms and Rain
8:54 PM 66.9 °F 63.0 °F 87% 29.58 in 5.0 mi South 20.7 mph 27.6 mph 0.16 in Rain Rain
9:54 PM 66.9 °F 62.1 °F 84% 29.55 in 10.0 mi South 29.9 mph 41.4 mph 0.04 in   Overcast
10:06 PM 66.2 °F 62.6 °F 88% 29.55 in 10.0 mi South 26.5 mph 42.6 mph N/A   Overcast
10:47 PM 66.2 °F 62.6 °F 88% 29.53 in 10.0 mi South 34.5 mph 48.3 mph N/A   Overcast
10:54 PM 66.2 °F 62.6 °F 88% 29.52 in 10.0 mi South 36.8 mph 46.0 mph N/A   Overcast
11:03 PM 66.2 °F 62.6 °F 88% 29.52 in 10.0 mi South 33.4 mph 52.9 mph N/A   Overcast
11:54 PM 66.0 °F 61.0 °F 84% 29.49 in 10.0 mi South 26.5 mph 39.1 mph N/A   Mostly Cloudy